Portada
METAR-TAF:

METAR-TAF

Aeropuertos :

Base Aérea de Valencia-Bétera

Valencia, España

latitud: 39-37-26N, longitud: 0-28-26W, altitud: 127 m

Observación

El informe se hizo hace 28 minutos, a las 21:30 UTC
Viento 1 kt del este
Temperatura 14°C
Humedad 58%
Presión 1017 hPa
Visibilidad 10 km o más

METAR: LEBT 162130Z AUTO 10001KT 9999 NCD 14/06 Q1017

Hora: 23:58 (21:58 UTC)


TAF: falta

Observaciones y pronósticos meteorológicos de más de 4000 aeropuertos (mensajes METAR y TAF).

Los puntos amarillos y rojos representan las estaciones disponibles.

Ponga el ratón en el punto deseado para ver el nombre de la estación.

Haga clic para ver las observaciones y los pronósticos meteorológicos.

Para cambiar el mapa : haga clic en los botones verdes con una cruz de color negro para hacer un zoom, en el botón verde con un guión para alejar o en las flechas verdes para mapas adyacentes.


METAR-TAF: